#timestamp,LO_Frequency,Hit,StdDev 
1579443295.2,286047012.5,P
1579443315.1,286047013.5,P
1579443316.0,286047013.5,P
1579443335.8,286047012.8,Y
1579443355.6,286046998.6,P
1579443375.5,286047000.5,N
1579443395.3,286046999.8,N
1579443415.2,286046999.7,N
1579443435.9,286047002.5,N
1579443455.7,286047001.9,N
1579443475.6,286047001.4,N
1579443495.4,286047001.7,N
1579443515.2,286047003.4,N
1579443535.1,286047005.5,N
1579443536.0,286047005.5,N
1579443555.8,286047005.6,N
1579443575.7,286047001.4,N
1579443595.5,286047002.0,N
1579443615.3,286047004.3,N
1579443635.2,286047001.9,N
1579443655.9,286047003.4,N
1579443675.7,286047003.3,N
1579443695.6,286047005.4,N
1579443715.4,286047005.0,N
1579443735.2,286047007.3,N
1579443755.1,286047006.9,N
1579443756.0,286047006.9,N
1579443775.8,286047009.1,N
1579443795.7,286047008.7,N
1579443815.5,286047009.0,N
1579443835.3,286047008.9,N
1579443855.2,286047006.4,N
1579443875.0,286047006.9,N
1579443875.9,286047006.9,N
1579443895.7,286047006.2,N
1579443915.6,286047007.6,N
1579443935.4,286047005.1,N
1579443955.3,286047004.5,N
1579443975.1,286047004.9,N
1579443976.0,286047004.9,N
1579443995.8,286047005.0,N
1579444015.7,286047007.0,Y
1579444035.5,286047001.8,P
1579444055.3,286047004.4,N
1579444075.2,286047003.6,N
1579444095.0,286047003.5,N
1579444095.9,286047011.9,Y
1579444115.8,286047000.9,P
1579444135.6,286047001.1,N
1579444155.4,286046998.7,N
1579444175.3,286047001.2,N
1579444195.1,286046998.4,N
1579444215.9,286046998.7,N
1579444235.7,286047000.3,N
1579444255.5,286047000.0,N
1579444275.4,286047000.4,N
1579444295.2,286047002.8,N
1579444315.0,286047001.1,N
1579444316.0,286047001.1,N
1579444335.8,286046999.0,N
1579444355.6,286046999.0,N
1579444375.5,286046999.4,N
1579444395.3,286046996.9,N
1579444415.1,286046997.0,N
1579444435.9,286046996.8,N
1579444455.7,286046996.7,N
1579444475.6,286046996.5,N
1579444495.4,286046998.9,N
1579444515.2,286046996.6,N
1579444535.1,286046998.9,N
1579444536.0,286046998.9,N
1579444555.8,286046998.8,N
1579444575.6,286046998.8,N
1579444595.5,286047000.9,N
1579444615.3,286047002.5,N
1579444635.2,286047003.8,N
1579444655.9,286047004.2,N
1579444675.7,286047002.5,N
1579444695.6,286047001.4,N
1579444715.4,286047001.4,N
1579444735.3,286047001.9,N
1579444755.1,286047001.8,N
1579444756.0,286047001.8,N
1579444775.8,286047002.4,N
1579444795.7,286047003.5,N
1579444815.5,286047005.7,N
1579444835.3,286047007.3,N
1579444855.2,286047006.5,N
1579444875.0,286047006.8,N
1579444875.9,286047006.8,N
1579444895.8,286047008.5,N
1579444915.6,286047008.9,N
1579444935.4,286047010.6,N
1579444955.3,286047010.4,N
1579444975.1,286047010.2,N
1579444995.8,286047009.7,N
1579445015.7,286047010.1,N
1579445035.5,286047006.1,N
1579445055.4,286047008.6,N
1579445075.2,286047008.8,N
1579445095.0,286047006.7,N
1579445095.9,286047006.7,N
1579445115.8,286047008.0,N
1579445135.6,286047009.5,Y
1579445155.4,286047005.1,P
1579445175.3,286047005.7,P
1579445195.1,286047006.8,P
1579445215.9,286047007.4,Y
1579445235.7,286047000.7,P
1579445255.5,286046998.9,N
1579445275.4,286046998.0,N
1579445295.2,286046997.4,N
1579445315.0,286046995.0,N
1579445316.0,286046995.0,N
1579445335.8,286046997.5,N
1579445355.6,286046995.4,N
1579445375.5,286046997.1,N
1579445395.3,286046998.3,N
1579445415.1,286046998.7,N
1579445435.9,286046998.6,N
1579445455.7,286047000.9,N
1579445475.5,286047001.1,N
1579445495.4,286046999.4,N
1579445515.2,286046999.6,N
1579445535.1,286046999.0,N
1579445536.0,286046999.0,N
1579445555.8,286046999.4,N
1579445575.6,286046996.7,N
1579445595.5,286046996.6,N
1579445615.3,286046997.4,N
1579445635.1,286046997.4,N
1579445655.9,286046997.9,N
1579445675.7,286046995.7,N
1579445695.6,286046994.9,N
1579445715.4,286046997.2,N
1579445735.2,286046995.4,N
1579445755.1,286046995.5,N
1579445756.0,286046995.5,N
1579445775.8,286046997.8,N
1579445795.6,286047000.9,N
1579445815.5,286047000.1,N
1579445835.3,286047002.5,N
1579445855.2,286047002.1,N
1579445875.9,286047002.7,N
1579445895.7,286047001.3,N
1579445915.6,286047004.0,N
1579445935.4,286047001.5,N
1579445955.2,286047002.2,N
1579445975.1,286047002.2,N
1579445976.0,286047002.2,N
1579445995